sat.trackr.live / text

‹ back to catalog

STARLINK-37111

NORAD 68381 · 2026-063B

PAYLOAD ACTIVE UNKNOWN

§ Identity

Operator
Country
US
Launch date
2026-03-26
Launch site
AFWTR
Launch vehicle
Mass (kg)
RCS (m²)

Purposes: comms

External: N2YO · Heavens-Above · Gunter

§ Orbital elements

Epoch: 2026-05-25T02:42:24.749280Z

Period
93.91 min
Inclination
97.2851°
Eccentricity
0.0000537
Mean motion
15.33453648 rev/d
Perigee alt
465.1 km
Apogee alt
465.9 km
Semi-major
6,843.7 km
B*
8.0203e-4
RAAN
287.6238°
Arg perigee
95.4954°
Mean anomaly
264.6350°
Rev number
960

§ Raw data

STARLINK-371111 68381U 26063B   26145.11278645  .00025913  00000+0  80203-3 0  99902 68381  97.2851 287.6238 0000537  95.4954 264.6350 15.33453648  9600

JSON: /api/v1/satellites/68381 · /tle

For live sub-satellite position, see the globe view (requires WebGL).

§ Visibility from observer

Set your observer location to see the next 7 days of passes ≥ 10°. The values pass through the URL so the page stays shareable.

No JS? Fill the form by hand. The geolocation button needs JavaScript.